Regional Weather Roundup
Issued by NWS Kansas City/Pleasant Hill, MO

Home | Current Version | Previous Version | Text Only | Print | Product List | Glossary On
Versions: 1 2 3 4 5 6 7 8 9 10 11 12 13 14 15 16 17 18 19 20 21 22 23 24 25 26 27 28 29 30 31 32 33 34 35 36 37 38 39 40 41 42 43 44 45 46 47 48 49 50
000
ASUS43 KEAX 262211
RWREAX

WEATHER ROUNDUP FOR EASTERN KANSAS AND NORTHWEST MISSOURI
NATIONAL WEATHER SERVICE KANSAS CITY/PLEASANT HILL MO
400 PM CST WED NOV 26 2014

KSZ040-057-103>105-MOZ028-029-037-043-262300-
...KANSAS CITY METROPOLITAN AREA...

CITY           SKY/WX    TMP DP  RH WIND       PRES   REMARKS
K.C. INTL      CLOUDY    34  27  75 NW24G31   30.13R WCI  21
K.C. DOWNTOWN  CLOUDY    36  27  69 NW18G26   30.14R WCI  26
LEES SUMMIT    CLOUDY    35  28  75 NW17G31   30.12R WCI  25
OLATHE - IXD   CLOUDY    34  27  75 NW21G30   30.15R WCI  22
OLATHE - OJC   CLOUDY    35  28  75 NW24G35   30.13R WCI  23
LAWRENCE       CLOUDY    35  26  69 NW26G32   30.18R WCI  22

$$

MOZ001>008-011>017-020>025-030>033-038>040-044>046-053-054-262300-
...NORTHERN AND CENTRAL MISSOURI...

CITY           SKY/WX    TMP DP  RH WIND       PRES   REMARKS
ST. JOSEPH     CLOUDY    32  26  78 NW25G32   30.17R WCI  19
MOSBY          CLOUDY    34  30  86 NW17G28   30.12R WCI  23
WARRENSBURG    CLOUDY    36  32  87 NW17G26   30.09R WCI  25
WHITEMAN AFB   CLOUDY    38  31  77 NW18G33   30.07R WCI  28
CLINTON        CLOUDY    43  32  65 W16G22    30.09R
SEDALIA        CLOUDY    39  32  76 NW26G35   30.06R WCI  28
WARSAW         NOT AVBL
MARSHALL       CLOUDY    39  36  87 NW22      30.05R WCI  29
CHILLICOTHE      N/A     35  29  78 NW13G18   30.07R WCI  26
KIRKSVILLE     LGT SNOW  33  33 100 NE5       29.99R VSB 1   WCI  29

$$

MOZ041-047>049-056>058-063>065-088>090-097-262300-
...EASTERN AND SOUTHERN MISSOURI...

CITY           SKY/WX    TMP DP  RH WIND       PRES   REMARKS
ST. LOUIS INTL LGT SNOW  34  32  92 CALM      30.01R FOG
SPIRIT OF STL  CLOUDY    34  32  92 CALM      30.01R FOG
COLUMBIA       LGT RAIN  38  35  89 W15G23    30.00R WCI  29
JEFFERSON CITY LGT RAIN  40  34  79 W16G26    30.02R WCI  31
ROLLA          CLOUDY    38  35  89 W7        29.98R WCI  33
LEBANON        PTCLDY    41  30  65 W15G28    30.04R WCI  33
OSAGE BEACH    MOCLDY    43  30  61 W13G21    30.03R
SPRINGFIELD    CLOUDY    45  26  47 W14G22    30.07R
BRANSON        MOCLDY    46  25  42 NW13G24   30.08R
NEVADA         PTCLDY    43  27  52 W15G25    30.13R
JOPLIN         CLOUDY    47  25  42 NW17G25   30.14R
WEST PLAINS    CLOUDY    39  33  79 W12G23    30.03R WCI  32

$$

IAZ060-094-KSZ022-034>040-054-083-096-NEZ052-066-093-262300-
...KANSAS...SOUTHEAST NEBRASKA AND IOWA...

CITY           SKY/WX    TMP DP  RH WIND       PRES   REMARKS
TOPEKA         CLOUDY    36  25  64 NW23G31   30.21R WCI  24
MANHATTAN      PTCLDY    36  23  59 N5G22     30.25R WCI  32
EMPORIA        PTSUNNY   36  24  62 NW24G32   30.21R WCI  24
CHANUTE        CLOUDY    42  26  53 NW20G29   30.19R WCI  33
WICHITA        PTSUNNY   44  22  41 NW20G33   30.25R
OMAHA          CLOUDY    28  20  71 N29G37    30.26R WCI  12
LINCOLN        CLOUDY    28  18  66 N24G30    30.29R WCI  14
FALLS CITY     CLOUDY    31  22  69 NW22G31   30.20R WCI  18
LAMONI         CLOUDY    30  27  88 N17G26    30.07R WCI  18
DES MOINES     LGT SNOW  32  27  81 N10       30.11R WCI  24

$$




USA.gov is the U.S. government's official web portal to all federal, state and local government web resources and services.